Location: Oroua River
(40.4333°S, 175.4333°E)
Time: 14:32:31
(UTC+00:00)

BREEZE-M DEB (TANK) - Pass Details

Date: 03 February 2023
Orbit: 320 x 11945 km, 49.7° (Epoch: 22 March)

Event Time Altitude Azimuth Distance (km) Brightness Sun altitude
Exits shadow 14:05:11 43° 51° (NE) 1,426 4.0 -29.1°
Maximum altitude 14:05:24 44° 57° (ENE) 1,460 4.1 -29.1°
Drops below altitude 10° 14:17:27 10° 122° (ESE) 5,890 8.1 -28.0°
Sets 14:25:49 0° 126° (SE) 8,823 9.2 -27.2°
